Date String (YYYY-MM-DD hh:mm:ss) UTC,Instrument flags,Ambient pressure (hPa),Sample flow (lpm),Bypass flow (lpm),Sample temperature (°C),Ambient temperature (°C),ASC tube jacket temperature (°C),LED temperature (°C),Box temperature (°C),Sample RH (%),Span deviation,Mass concentration (μg/m³),Mass concentration (μg/m³),Mass concentration (μg/m³)
DateTimeUTC,F1_M11,P_M11,Q1_M11,Q2_M11,T1_M11,T2_M11,T3_M11,T4_M11,T5_M11,U1_M11,ZSPAN_M11,X2_M11,X0_M11,X1_M11
2022-12-29 10:00:00,,0814.5,4.97,0.00,21.7,21.5,00.0,30.5,23.6,18.6,0000.0,0001.20,0001.77,0001.03
2022-12-29 10:01:00,,0814.4,5.00,0.00,21.7,20.9,00.0,30.5,23.4,18.6,0000.0,0001.20,0001.77,0001.04
2022-12-29 10:02:00,,0814.3,5.03,0.00,21.7,20.5,00.0,30.5,23.2,18.6,0000.0,0001.24,0001.86,0001.05
2022-12-29 10:03:00,,0814.5,4.99,0.00,21.6,20.2,00.0,30.5,23.2,18.6,0000.0,0001.25,0001.86,0001.07
2022-12-29 10:04:00,,0814.4,5.00,0.00,21.6,20.0,00.0,30.5,23.1,18.7,0000.0,0001.26,0001.85,0001.08
2022-12-29 10:05:00,,0814.4,4.96,0.00,21.5,19.9,00.0,30.5,23.1,18.7,0000.0,0001.26,0001.80,0001.10
2022-12-29 10:06:00,,0814.3,4.97,0.00,21.5,19.8,00.0,30.5,23.0,18.7,0000.0,0001.28,0001.81,0001.14
2022-12-29 10:07:00,,0814.4,5.01,0.00,21.5,19.7,00.0,30.5,23.0,18.7,0000.0,0001.31,0001.83,0001.16
2022-12-29 10:08:00,,0814.3,5.04,0.00,21.5,19.7,00.0,30.5,23.0,18.8,0000.0,0001.32,0001.83,0001.19
2022-12-29 10:09:00,,0814.3,5.00,0.00,21.4,19.6,00.0,30.5,23.0,18.8,0000.0,0001.37,0001.89,0001.22
2022-12-29 10:10:00,,0814.3,5.01,0.00,21.4,19.6,00.0,30.4,22.9,18.8,0000.0,0001.41,0001.93,0001.26
2022-12-29 10:11:00,,0814.3,4.98,0.00,21.4,19.5,00.0,30.4,22.9,18.9,0000.0,0001.46,0002.01,0001.30
2022-12-29 10:12:00,,0814.3,4.99,0.00,21.3,19.4,00.0,30.4,22.8,19.4,0000.0,0001.50,0002.09,0001.33
2022-12-29 10:13:00,,0814.4,5.01,0.00,21.3,19.3,00.0,30.4,22.8,19.1,0000.0,0001.51,0002.03,0001.36
2022-12-29 10:14:00,,0814.5,5.02,0.00,21.3,19.8,00.0,30.3,22.9,19.0,0000.0,0001.56,0002.09,0001.38
2022-12-29 10:15:00,,0814.4,5.01,0.00,21.4,21.2,00.0,30.3,23.2,18.8,0000.0,0001.61,0002.20,0001.41
2022-12-29 10:16:00,,0814.6,4.98,0.00,21.5,22.2,00.0,30.3,23.6,18.6,0000.0,0001.64,0002.23,0001.44
2022-12-29 10:17:00,,0814.7,4.97,0.00,21.7,22.1,00.0,30.4,23.7,18.5,0000.0,0001.66,0002.28,0001.45
2022-12-29 10:18:00,,0814.7,5.02,0.00,21.7,21.5,00.0,30.4,23.6,18.4,0000.0,0001.68,0002.29,0001.47
2022-12-29 10:19:00,,0814.7,5.01,0.00,21.6,21.0,00.0,30.4,23.4,18.5,0000.0,0001.70,0002.33,0001.48
2022-12-29 10:20:00,,0814.6,5.01,0.00,21.6,20.6,00.0,30.5,23.3,18.5,0000.0,0001.69,0002.28,0001.50
2022-12-29 10:21:00,,0814.7,5.01,0.00,21.6,20.3,00.0,30.5,23.2,18.5,0000.0,0001.67,0002.24,0001.50
2022-12-29 10:22:00,,0814.6,4.96,0.00,21.6,20.1,00.0,30.5,23.1,18.5,0000.0,0001.67,0002.18,0001.51
2022-12-29 10:23:00,,0814.7,5.06,0.00,21.5,19.9,00.0,30.5,23.0,18.5,0000.0,0001.68,0002.18,0001.53
2022-12-29 10:24:00,,0814.6,5.03,0.00,21.5,19.7,00.0,30.5,23.0,18.6,0000.0,0001.72,0002.24,0001.56
2022-12-29 10:25:00,,0814.7,4.99,0.00,21.4,19.6,00.0,30.5,22.9,18.6,0000.0,0001.72,0002.24,0001.57
2022-12-29 10:26:00,,0814.7,4.98,0.00,21.4,19.5,00.0,30.4,22.8,18.6,0000.0,0001.72,0002.21,0001.59
2022-12-29 10:27:00,,0814.5,4.98,0.00,21.3,19.4,00.0,30.4,22.8,18.7,0000.0,0001.74,0002.24,0001.60
2022-12-29 10:28:00,,0814.5,5.03,0.00,21.3,19.3,00.0,30.4,22.7,18.7,0000.0,0001.76,0002.22,0001.63
2022-12-29 10:29:00,,0814.5,5.01,0.00,21.2,19.2,00.0,30.4,22.7,18.8,0000.0,0001.79,0002.26,0001.66
2022-12-29 10:30:00,,0814.7,4.97,0.00,21.2,19.1,00.0,30.3,22.6,18.8,0000.0,0001.83,0002.33,0001.69
2022-12-29 10:31:00,,0814.4,4.98,0.00,21.1,19.1,00.0,30.3,22.5,18.9,0000.0,0001.87,0002.40,0001.72
2022-12-29 10:32:00,,0814.4,5.01,0.00,21.2,20.1,00.0,30.2,22.8,18.8,0000.0,0001.92,0002.48,0001.76
2022-12-29 10:33:00,,0814.7,5.03,0.00,21.3,21.3,00.0,30.2,23.2,18.7,0000.0,0001.94,0002.52,0001.79
2022-12-29 10:34:00,,0814.7,4.99,0.00,21.5,22.0,00.0,30.2,23.4,18.5,0000.0,0001.97,0002.55,0001.82
2022-12-29 10:35:00,,0814.9,4.98,0.00,21.5,21.4,00.0,30.3,23.3,18.4,0000.0,0001.98,0002.56,0001.83
2022-12-29 10:36:00,,0814.7,5.00,0.00,21.5,20.7,00.0,30.3,23.1,18.4,0000.0,0001.98,0002.52,0001.85
2022-12-29 10:37:00,,0814.4,5.00,0.00,21.4,20.2,00.0,30.3,22.9,18.5,0000.0,0001.99,0002.51,0001.86
2022-12-29 10:38:00,,0814.4,4.99,0.00,21.3,19.8,00.0,30.3,22.8,18.6,0000.0,0002.01,0002.54,0001.88
2022-12-29 10:39:00,,0814.4,5.00,0.00,21.3,19.4,00.0,30.3,22.7,18.7,0000.0,0002.04,0002.54,0001.92
2022-12-29 10:40:00,,0814.7,5.03,0.00,21.2,19.2,00.0,30.3,22.6,18.7,0000.0,0002.09,0002.58,0001.96
2022-12-29 10:41:00,,0814.5,4.99,0.00,21.2,19.1,00.0,30.3,22.5,18.8,0000.0,0002.13,0002.57,0002.02
2022-12-29 10:42:00,,0814.6,4.98,0.00,21.1,19.0,00.0,30.2,22.4,18.9,0000.0,0002.19,0002.60,0002.08
2022-12-29 10:43:00,,0814.9,4.99,0.00,21.0,18.9,00.0,30.2,22.4,18.9,0000.0,0002.25,0002.62,0002.15
2022-12-29 10:44:00,,0815.1,5.02,0.00,21.0,18.8,00.0,30.2,22.3,18.9,0000.0,0002.33,0002.66,0002.23
2022-12-29 10:45:00,,0815.0,5.00,0.00,20.9,18.8,00.0,30.1,22.3,19.0,0000.0,0002.43,0002.70,0002.34
2022-12-29 10:46:00,,0815.1,4.99,0.00,21.0,20.0,00.0,30.0,22.6,19.0,0000.0,0002.54,0002.74,0002.46
2022-12-29 10:47:00,,0814.9,5.01,0.00,21.1,21.3,00.0,30.0,23.0,18.9,0000.0,0002.68,0002.82,0002.60
2022-12-29 10:48:00,,0815.1,4.96,0.00,21.3,21.7,00.0,30.1,23.2,18.7,0000.0,0002.82,0002.88,0002.74
2022-12-29 10:49:00,,0815.1,5.01,0.00,21.3,21.1,00.0,30.1,23.0,18.6,0000.0,0002.95,0002.94,0002.89
2022-12-29 10:50:00,,0815.1,5.03,0.00,21.2,20.4,00.0,30.1,22.8,18.7,0000.0,0003.07,0002.99,0003.01
2022-12-29 10:51:00,,0815.1,4.98,0.00,21.2,19.9,00.0,30.1,22.7,18.7,0000.0,0003.15,0003.01,0003.12
2022-12-29 10:52:00,,0815.0,5.00,0.00,21.1,19.5,00.0,30.1,22.6,18.7,0000.0,0003.21,0003.07,0003.18
2022-12-29 10:53:00,,0815.1,4.98,0.00,21.1,19.2,00.0,30.1,22.4,18.8,0000.0,0003.26,0003.10,0003.24
2022-12-29 10:54:00,,0815.1,4.98,0.00,21.0,18.9,00.0,30.1,22.4,18.9,0000.0,0003.31,0003.12,0003.29
2022-12-29 10:55:00,,0815.1,5.03,0.00,20.9,18.8,00.0,30.1,22.3,18.9,0000.0,0003.34,0003.13,0003.32
2022-12-29 10:56:00,,0815.1,4.98,0.00,20.9,18.6,00.0,30.0,22.2,19.0,0000.0,0003.36,0003.16,0003.34
2022-12-29 10:57:00,,0815.1,5.01,0.00,20.8,18.5,00.0,30.0,22.1,19.1,0000.0,0003.36,0003.17,0003.34
2022-12-29 10:58:00,,0815.1,5.00,0.00,20.8,19.4,00.0,29.9,22.3,19.1,0000.0,0003.37,0003.16,0003.35
2022-12-29 10:59:00,,0814.8,4.98,0.00,20.9,20.9,00.0,29.9,22.7,18.9,0000.0,0003.39,0003.25,0003.37
